Location: Bay Ridge
(40.6340°N, 74.0146°W)
Time: 05:39:55
(UTC+00:00)

CZ-2C R/B - Pass Details

Date: 15 November 2019
Orbit: 667 x 785 km, 98.1° (Epoch: 08 December)

Event Time Altitude Azimuth Distance (km) Brightness Sun altitude
Rises 09:41:47 0° 8° (N) 3,178 5.7 -22.9°
Reaches altitude 10° 09:44:08 10° 4° (N) 2,232 4.9 -22.4°
Maximum altitude 09:48:54 56° 287° (WNW) 844 2.3 -21.5°
Enters shadow 09:50:02 44° 240° (WSW) 971 2.6 -21.3°
